Погода в Можарке

Россия / Красноярский край     53°57′51″N   93°20′21″E
темп.,
°C
ветер,
м/с
пор.,
м/с
влажн.,
%
обл.,
%
осадки,
мм/ч
давл.,
гПа
погр.,
м
18 мая, ср
ср1801:00+12в11742 0.0 101310
04:00+10всв11795 0.0 101311
07:00+14в12625 0.0 1013140
10:00+22ююв124030 0.0 1013633
13:00+26юз232754 0.0 10112485
16:00+27юз2324100 0.0 10102560
19:00+23ю1141100 0.0 101011
22:00+17всв115228 0.0 101211
19 мая, чт
чт1901:00+14всв116177 0.0 101210
04:00+12в116873 0.0 101311
07:00+16всв2259100 0.0 1012118
10:00+23в2338100 0.0 1010473
13:00+28вюв232544 0.0 10081646
16:00+31юв14205 0.0 10063005
19:00+27в11355 0.0 100411
22:00+18ююв2456100 0.0 1007102
20 мая, пт
пт2001:00+15ю2271100 0.0 101022
04:00+15ююз2979100 0.2 1013371
07:00+15ююз1387100 1.2 1014125
10:00+18з2471100 3.8 1014376
13:00+18зсз1368100 6.8 1015715
16:00+21с1351100 1.4 10141112
19:00+18юв237034 1.8 101498
22:00+13вюв118796 0.0 101511
21 мая, сб
сб2101:00+12ююз019129 0.6 101612
04:00+10юв11965 0.6 101717
07:00+12ююв138768 0.6 1017123
10:00+19юз4841100 0.0 10161526
13:00+22з4733100 0.0 10152511
16:00+23з353228 0.0 10132220
19:00+21ю114618 0.0 101215
22:00+14в11603 0.0 101210
22 мая, вс
вс2201:00+12всв22710 0.0 101215
04:00+10всв22775 0.0 101227
07:00+15всв23625 0.0 1011159
10:00+22в48405 0.0 1008763
13:00+27в46255 0.0 10051372
16:00+29в4521100 0.0 10031503
19:00+23св2243100 0.0 100335
22:00+17ссв1157100 0.1 100411